Location: Blue Mountain Vista Observatory
(40.6992°N, 75.9422°W)
Time: 11:31:50
(UTC-04:00)

IDEFIX/ARIANE 42P - Visible Passes

Search period start: 31 March 2015 00:00
Search period end: 10 April 2015 00:00
Orbit: 785 x 804 km, 98.3° (Epoch: 30 March)

Date Brightness Start Highest point End Pass type
(mag) Time Alt. Az. Time Alt. Az. Time Alt. Az.
31 Mar 2.7 19:47:19 10° SSE 19:52:23 55° ENE 19:57:28 10° N visible
31 Mar 5.2 21:28:52 10° SW 21:32:26 18° W 21:35:47 10° NW visible
01 Apr 4.3 20:59:13 10° SSW 21:03:54 32° W 21:08:30 10° NNW visible
02 Apr 3.2 20:30:23 10° S 20:35:31 59° W 20:40:40 10° NNW visible
03 Apr 2.5 20:02:05 10° SSE 20:07:16 76° ENE 20:12:29 10° N visible
03 Apr 5.4 21:45:19 10° WSW 21:47:36 12° W 21:49:33 10° WNW visible
04 Apr 4.8 21:14:48 10° SW 21:18:58 23° W 21:23:01 10° NW visible
05 Apr 3.8 20:45:35 10° S 20:50:30 42° W 20:55:25 10° NNW visible
06 Apr 2.7 20:16:59 10° S 20:22:11 78° WSW 20:27:25 10° NNW visible
07 Apr 5.2 21:30:43 10° SW 21:34:05 17° W 21:37:14 10° NW visible
08 Apr 4.4 21:00:57 10° SSW 21:05:32 30° W 21:10:03 10° NW visible
09 Apr 3.3 20:32:03 10° S 20:37:08 56° W 20:42:15 10° NNW visible
